DW8847 Weather Reports


Display with metric or nautical units.
time (UTC)temp
F
wind
direction
speed
MPH
gust
MPH
rain 1hr
in
rain 24hr
in
rain mn
in
humidity
%
barometer
mb
20260902164523 84 231 0.0 0.0 0.00 0.00 0.00 54 1014.7
20260902163014 87 231 0.0 0.0 0.00 0.00 0.00 51 1014.9
20260902161523 89 231 0.0 0.0 0.00 0.00 0.00 50 1014.9
20260902160013 89 231 0.0 0.0 0.00 0.00 0.00 44 1015.0
20260902154517 87 231 0.0 2.0 0.00 0.00 0.00 45 1015.0
20260902153014 87 231 0.0 2.0 0.00 0.00 0.00 48 1015.1
20260902151510 86 231 0.0 3.0 0.00 0.00 0.00 45 1015.2
20260902150018 87 251 0.0 2.0 0.00 0.00 0.00 50 1015.3
20260902144509 87 224 0.0 2.0 0.00 0.00 0.00 46 1015.3
20260902143007 86 226 0.0 3.0 0.00 0.00 0.00 45 1015.4
20260902141504 87 215 0.0 3.0 0.00 0.00 0.00 45 1015.5
20260902140004 88 257 0.0 1.0 0.00 0.00 0.00 46 1015.6
20260902134504 89 257 0.0 3.0 0.00 0.00 0.00 44 1015.7
20260902133106 89 123 0.0 2.0 0.00 0.00 0.00 42 1015.8
20260902131606 88 110 0.0 2.0 0.00 0.00 0.00 41 1016.0
20260902124557 86 168 0.0 2.0 0.00 0.00 0.00 43 1016.2
20260902123057 88 85 0.0 0.0 0.00 0.00 0.00 43 1016.3
20260902121606 87 85 0.0 2.0 0.00 0.00 0.00 41 1016.3
20260902120053 87 60 1.0 4.0 0.00 0.00 0.00 46 1016.4
20260902114553 86 46 1.0 3.0 0.00 0.00 0.00 42 1016.7
20260902113057 86 80 1.0 5.0 0.00 0.00 0.00 46 1016.7
20260902111548 87 61 0.0 4.0 0.00 0.00 0.00 46 1016.9
20260902110047 85 39 0.0 4.0 0.00 0.00 0.00 44 1017.2
20260902104601 85 9 1.0 4.0 0.00 0.00 0.00 50 1017.2
20260902103043 84 46 1.0 6.0 0.00 0.00 0.00 45 1017.3
20260902101549 84 51 2.0 7.0 0.00 0.00 0.00 46 1017.5
20260902100038 83 345 2.0 9.0 0.00 0.00 0.00 51 1017.5
20260902094535 83 28 3.0 7.0 0.00 0.00 0.00 51 1017.7
20260902093030 82 22 4.0 9.0 0.00 0.00 0.00 51 1017.7
20260902091535 82 25 4.0 9.0 0.00 0.00 0.00 51 1017.6
20260902090024 82 37 5.0 10.0 0.00 0.00 0.00 51 1017.7
20260902084523 81 60 4.0 9.0 0.00 0.00 0.00 53 1017.8
20260902083018 81 39 2.0 5.0 0.00 0.00 0.00 57 1017.8
20260902081521 80 62 2.0 4.0 0.00 0.00 0.00 61 1017.7
20260902080010 79 14 2.0 5.0 0.00 0.00 0.00 61 1017.7
20260902074506 78 17 3.0 7.0 0.00 0.00 0.00 62 1017.6
20260902073002 77 36 2.0 5.0 0.00 0.00 0.00 64 1017.6
20260902071558 76 28 2.0 6.0 0.00 0.00 0.00 66 1017.5
20260902070054 75 23 2.0 5.0 0.00 0.00 0.00 67 1017.4
20260902064552 73 23 1.0 6.0 0.00 0.00 0.00 71 1017.4
20260902063045 72 28 2.0 4.0 0.00 0.00 0.00 70 1017.4
20260902061547 71 11 1.0 3.0 0.00 0.00 0.00 73 1017.4
20260902060037 70 24 2.0 3.0 0.00 0.00 0.00 74 1017.3
20260902054538 68 26 2.0 3.0 0.00 0.00 0.00 76 1017.2
20260902053032 68 26 2.0 4.0 0.00 0.00 0.00 78 1017.1
20260902051529 66 34 2.0 4.0 0.00 0.00 0.00 79 1017.0
20260902050028 66 34 1.0 3.0 0.00 0.00 0.00 80 1017.0
20260902044530 65 34 0.0 3.0 0.00 0.00 0.00 80 1017.0
20260902043033 66 34 0.0 2.0 0.00 0.00 0.00 80 1017.1
20260902041525 66 34 1.0 4.0 0.00 0.00 0.00 79 1016.9
20260902040024 66 34 0.0 4.0 0.00 0.00 0.00 80 1016.8
20260902034522 65 34 1.0 3.0 0.00 0.00 0.00 80 1016.9
20260902033020 66 34 1.0 3.0 0.00 0.00 0.00 79 1017.0
20260902031532 67 34 0.0 4.0 0.00 0.00 0.00 77 1017.0
20260902030018 67 18 3.0 5.0 0.00 0.00 0.00 77 1016.9
20260902024517 67 20 2.0 4.0 0.00 0.00 0.00 76 1016.8
20260902023028 68 19 1.0 3.0 0.00 0.00 0.00 75 1016.8
20260902021514 68 19 2.0 4.0 0.00 0.00 0.00 75 1016.9
20260902020023 68 19 2.0 3.0 0.00 0.00 0.00 75 1016.9
20260902014520 68 19 2.0 3.0 0.00 0.01 0.00 75 1016.9
20260902013012 68 19 2.0 4.0 0.00 0.01 0.00 74 1016.8
20260902011510 69 15 1.0 4.0 0.00 0.01 0.00 72 1016.9
20260902010011 69 24 2.0 4.0 0.00 0.01 0.00 72 1016.9
20260902004508 69 34 2.0 3.0 0.00 0.02 0.00 71 1017.0
20260902003006 69 32 1.0 5.0 0.00 0.02 0.00 70 1017.1
20260902001506 69 44 2.0 4.0 0.00 0.02 0.00 71 1017.2
20260902000004 69 24 1.0 3.0 0.00 0.02 0.00 71 1017.2
20260901234504 70 24 2.0 4.0 0.00 0.07 0.00 69 1017.3
20260901233001 70 25 2.0 5.0 0.00 0.07 0.00 70 1017.3
20260901231614 69 360 0.0 2.0 0.00 0.07 0.00 77 1017.3
20260901230110 69 360 0.0 2.0 0.00 0.07 0.00 79 1017.3
20260901224558 69 360 0.0 2.0 0.00 0.07 0.00 79 1017.1
20260901223056 69 360 0.0 2.0 0.00 0.07 0.00 78 1017.2
20260901221616 70 360 0.0 3.0 0.00 0.07 0.00 78 1017.1
20260901214552 69 347 0.0 2.0 0.00 0.07 0.07 80 1017.1
20260901213105 70 347 0.0 2.0 0.00 0.07 0.07 79 1017.1
20260901211551 70 347 0.0 2.0 0.00 0.07 0.07 78 1017.0
20260901210051 70 347 0.0 2.0 0.00 0.07 0.07 78 1016.9
20260901204602 71 347 0.0 2.0 0.00 0.07 0.07 78 1016.9
20260901203053 71 347 1.0 2.0 0.00 0.07 0.07 79 1016.8
20260901201555 71 347 0.0 2.0 0.00 0.07 0.07 78 1016.8
20260901200113 71 347 1.0 2.0 0.00 0.07 0.07 77 1016.6
20260901194604 71 347 0.0 2.0 0.00 0.07 0.07 76 1016.6
20260901193051 72 347 0.0 2.0 0.00 0.07 0.07 76 1016.5
20260901191623 72 347 0.0 2.0 0.00 0.07 0.07 76 1016.4
20260901190051 72 347 0.0 0.0 0.00 0.07 0.07 79 1016.3
20260901184546 72 347 0.0 2.0 0.00 0.07 0.07 79 1016.2
20260901183053 74 347 0.0 0.0 0.00 0.07 0.07 73 1016.1
20260901181552 74 347 0.0 0.0 0.00 0.07 0.07 71 1015.9
20260901180045 76 347 0.0 2.0 0.00 0.07 0.07 72 1015.7
20260901174546 79 347 0.0 0.0 0.00 0.07 0.07 65 1015.7
20260901173044 81 347 0.0 0.0 0.00 0.07 0.07 63 1015.7
20260901171549 83 347 0.0 0.0 0.00 0.07 0.07 59 1015.7
20260901170055 85 347 0.0 0.0 0.00 0.07 0.07 52 1015.8